STARLINK-1589 (46158 NORAD) Tracking and Keplerian Element Data

This shows tracking and keplerian element data for the satellite.

Feedback or suggestion? Click here.




ElementValue
Catalog46158
NameSTARLINK-1589
Epoch Orbit1704
Epoch Day336.16667824
Epoch Year2020
RAAN287.9331
Inclination52.9968
Eccentricity0.0002512
Argument of Perigee11.0829
Mean Anonmoly325.7857
Mean Motion15.62712448
Decay Rate-6.423E-05
L11 46158U 20057AT 20336.16667824 -.00006423 00000-0 -64446-4 0 9997
L22 46158 52.9968 287.9331 0002512 11.0829 325.7857 15.62712448 17048

Live tracking and technical data element details for STARLINK-1589 (NORAD 46158). STARLINK-1589 can be tracked NOW for your location showing map with azimuth and elevation plus other details from your city location.

Track the satellite on the map from your city or location and see movement details for azimuth, elevation, latitude, longitude, range, height, and movement on the map or in text.







IsCatalogInMostPopularTable: catalog: 46158, numindb: 20
Update: records affected: 1



GetName: 46158 STARLINK-1589

Hit Count: updated at: Wed, 02 Dec 2020 05:45:56 GMT